Voltar ao catálogo

FENGYUN 1C DEB

AtivoSSO
NORAD 31254·DEBRIS·🇨🇳 China

Lançado May 10, 1999 de Taiyuan Satellite Launch Center

Loading…

Próximas Passagens (próximas 24 horas)

TLE

AtualizadoSource: Space-Track

Época: Sep 14, 2026, 09:10 UTC

1 31254U 99025BML 26257.38233976  .00000856  00000-0  26643-3 0  9996
2 31254  98.4269 306.8952 0151193  99.7220 324.3364 14.37056588 13553

Acompanhe FENGYUN 1C DEB em tempo real com AllMySat

Download on the App Store